Location: Geography Hall
(41.1195°N, 80.5706°W)
Time: 00:23:27
(UTC+00:00)

Cosmos 1076 Rocket - Pass Details

Date: 29 October 2020
Orbit: 589 x 612 km, 82.5° (Epoch: 02 December)

Event Time Altitude Azimuth Distance (km) Brightness Sun altitude
Rises 23:18:39 0° 3° (N) 2,832 6.8 -11.4°
Reaches altitude 10° 23:21:07 10° 16° (NNE) 1,928 5.9 -11.9°
Maximum altitude 23:24:46 27° 75° (ENE) 1,144 4.3 -12.6°
Drops below altitude 10° 23:28:24 10° 134° (SE) 1,922 5.7 -13.2°
Sets 23:30:52 0° 147° (SSE) 2,822 6.7 -13.7°
